Tracy, MN

4:40 AM CST on January 19, 2018 (GMT -0600)
Tracy

Weather History for KTKC - June, 2013

Change the Weather History Date:

Friday, June 28, 2013

  Actual Average (KMML) Record (KMML)
Temperature  
Mean Temperature 74 °F -  
Max Temperature 81 °F 83 °F 100 °F (1988)
Min Temperature 66 °F 60 °F 46 °F (2007)
Cooling Degree Days 8    
Growing Degree Days 24 (Base 50)    
Moisture  
Dew Point 55 °F    
Average Humidity 52    
Maximum Humidity 71    
Minimum Humidity 39    
Precipitation  
Precipitation 0.00 in - - ()
Sea Level Pressure  
Sea Level Pressure 29.92 in    
Wind  
Wind Speed 11 mph (NW)    
Max Wind Speed 28 mph    
Max Gust Speed 41 mph    
Visibility 10 miles    
Events      
Averages and records for this station are not official NWS values.
T = Trace of Precipitation, MM = Missing Value Source: NWS Daily Summary

Daily Weather History Graph

Daily Weather History Graph

Search for Another Location

Airport or City:

Trip Planner

Search our weather history database for the weather conditions in past years. The results will help you decide how hot, cold, wet, or windy it might be!

Date:

Astronomy

Jun. 28, 2013 Rise Set
Actual Time 5:41 AM CDT 9:10 PM CDT
Civil Twilight 5:04 AM CDT 9:46 PM CDT
Nautical Twilight 4:16 AM CDT 10:34 PM CDT
Astronomical Twilight 3:15 AM CDT 11:36 PM CDT
Moon No Moon Rise 12:04 PM CDT (6/28)
Length of Visible Light 16h 42m
Length of Day
15h 29m
Waning Gibbous, 66% of the Moon is Illuminated
Jun 28
Waning Gibbous
Jun 29
Last Quarter
Jul 8
New
Jul 15
First Quarter
Jul 22
Full

Hourly Weather History & Observations

Time (CDT) Temp. Heat Index Dew Point Humidity Pressure Visibility Wind Dir Wind Speed Gust Speed Precip Events Conditions
12:13 AM 72.1 °F - 55.0 °F 55% 29.91 in 10.0 mi Calm Calm - N/A   Clear
12:34 AM 71.6 °F - 55.0 °F 56% 29.92 in 10.0 mi NW 9.2 mph - N/A   Clear
12:54 AM 71.6 °F - 54.9 °F 55% 29.93 in 10.0 mi NW 9.2 mph - N/A   Clear
1:34 AM 69.4 °F - 55.0 °F 60% 29.94 in 10.0 mi NW 6.9 mph - N/A   Clear
1:54 AM 68.7 °F - 54.7 °F 61% 29.94 in 10.0 mi Calm Calm - N/A   Clear
2:13 AM 69.3 °F - 54.5 °F 59% 29.94 in 10.0 mi WNW 4.6 mph - N/A   Clear
2:33 AM 68.9 °F - 54.5 °F 60% 29.95 in 10.0 mi Calm Calm - N/A   Clear
2:54 AM 67.6 °F - 54.7 °F 63% 29.95 in 10.0 mi Calm Calm - N/A   Clear
3:13 AM 68.0 °F - 54.7 °F 62% 29.95 in 10.0 mi Calm Calm - N/A   Clear
3:34 AM 67.3 °F - 55.0 °F 65% 29.94 in 10.0 mi West 3.5 mph - N/A   Clear
3:53 AM 66.7 °F - 55.4 °F 67% 29.94 in 10.0 mi Calm Calm - N/A   Clear
4:14 AM 67.1 °F - 54.9 °F 65% 29.94 in 10.0 mi West 6.9 mph - N/A   Clear
4:34 AM 67.5 °F - 54.7 °F 64% 29.94 in 10.0 mi WNW 5.8 mph - N/A   Clear
4:53 AM 67.6 °F - 54.5 °F 63% 29.94 in 10.0 mi WNW 6.9 mph - N/A   Clear
5:14 AM 66.9 °F - 54.7 °F 65% 29.94 in 10.0 mi West 5.8 mph - N/A   Clear
5:34 AM 67.1 °F - 54.5 °F 64% 29.94 in 10.0 mi WNW 9.2 mph - N/A   Clear
5:53 AM 67.8 °F - 54.5 °F 62% 29.94 in 10.0 mi WNW 10.4 mph - N/A   Clear
6:13 AM 68.2 °F - 54.7 °F 62% 29.94 in 10.0 mi WNW 11.5 mph 17.3 mph N/A   Clear
6:34 AM 68.2 °F - 55.0 °F 63% 29.94 in 10.0 mi WNW 11.5 mph - N/A   Clear
6:54 AM 68.9 °F - 55.4 °F 62% 29.94 in 10.0 mi WNW 10.4 mph 17.3 mph N/A   Clear
7:14 AM 70.3 °F - 55.4 °F 59% 29.94 in 10.0 mi WNW 10.4 mph 17.3 mph N/A   Clear
7:34 AM 71.4 °F - 55.6 °F 57% 29.94 in 10.0 mi NW 13.8 mph 24.2 mph N/A   Clear
7:54 AM 72.5 °F - 55.4 °F 55% 29.94 in 10.0 mi NW 10.4 mph 26.5 mph N/A   Clear
8:14 AM 73.0 °F - 55.4 °F 54% 29.94 in 10.0 mi NW 17.3 mph 26.5 mph N/A   Clear
8:33 AM 73.6 °F - 55.2 °F 53% 29.94 in 10.0 mi NW 21.9 mph 27.6 mph N/A   Clear
8:53 AM 74.3 °F - 55.4 °F 52% 29.92 in 10.0 mi NNW 19.6 mph 29.9 mph N/A   Clear
9:13 AM 74.7 °F - 55.6 °F 51% 29.92 in 10.0 mi NW 19.6 mph 29.9 mph N/A   Clear
9:33 AM 75.2 °F - 55.2 °F 50% 29.92 in 10.0 mi NW 25.3 mph 33.4 mph N/A   Clear
9:54 AM 76.1 °F - 54.9 °F 48% 29.92 in 10.0 mi NNW 19.6 mph 34.5 mph N/A   Clear
10:13 AM 76.5 °F - 55.4 °F 48% 29.92 in 10.0 mi NNW 24.2 mph 35.7 mph N/A   Clear
10:34 AM 76.8 °F - 54.7 °F 46% 29.92 in 10.0 mi NW 25.3 mph 35.7 mph N/A   Clear
10:53 AM 77.0 °F - 54.9 °F 46% 29.91 in 10.0 mi NNW 23.0 mph 34.5 mph N/A   Clear
11:13 AM 77.9 °F - 54.5 °F 44% 29.91 in 10.0 mi NNW 18.4 mph 34.5 mph N/A   Clear
11:33 AM 78.3 °F - 54.3 °F 43% 29.92 in 10.0 mi NNW 26.5 mph 35.7 mph N/A   Clear
11:54 AM 78.8 °F - 54.7 °F 43% 29.92 in 10.0 mi NNW 23.0 mph 31.1 mph N/A   Scattered Clouds
12:13 PM 79.5 °F - 54.3 °F 42% 29.92 in 10.0 mi NNW 26.5 mph 36.8 mph N/A   Scattered Clouds
12:33 PM 80.1 °F 80.0 °F 54.0 °F 40% 29.92 in 10.0 mi NNW 27.6 mph 41.4 mph N/A   Scattered Clouds
12:53 PM 80.2 °F 80.0 °F 53.2 °F 39% 29.92 in 10.0 mi NNW 24.2 mph 33.4 mph N/A   Scattered Clouds
1:13 PM 80.2 °F 80.4 °F 55.6 °F 43% 29.92 in 10.0 mi NW 27.6 mph 32.2 mph N/A   Mostly Cloudy
1:34 PM 79.5 °F - 55.0 °F 43% 29.91 in 10.0 mi NW 24.2 mph 31.1 mph N/A   Mostly Cloudy
1:54 PM 79.5 °F - 55.9 °F 44% 29.91 in 10.0 mi NNW 21.9 mph 29.9 mph N/A   Mostly Cloudy
2:13 PM 79.9 °F - 55.6 °F 43% 29.91 in 10.0 mi NNW 25.3 mph 33.4 mph N/A   Mostly Cloudy
2:34 PM 80.1 °F 80.1 °F 55.2 °F 42% 29.91 in 10.0 mi NNW 27.6 mph 33.4 mph N/A   Mostly Cloudy
2:53 PM 80.8 °F 80.7 °F 55.9 °F 42% 29.90 in 10.0 mi NNW 21.9 mph 33.4 mph N/A   Scattered Clouds
3:13 PM 81.0 °F 80.9 °F 56.3 °F 43% 29.90 in 10.0 mi NNW 26.5 mph 33.4 mph N/A   Mostly Cloudy
3:34 PM 80.6 °F 80.7 °F 56.7 °F 44% 29.91 in 10.0 mi NW 23.0 mph 32.2 mph N/A   Scattered Clouds
3:53 PM 79.5 °F - 55.6 °F 44% 29.91 in 10.0 mi NNW 23.0 mph 31.1 mph N/A   Scattered Clouds
4:13 PM 80.8 °F 80.7 °F 55.6 °F 42% 29.91 in 10.0 mi NNW 24.2 mph 29.9 mph N/A   Scattered Clouds
4:34 PM 79.9 °F - 55.4 °F 43% 29.90 in 10.0 mi NNW 21.9 mph 28.8 mph N/A   Scattered Clouds
4:54 PM 80.4 °F 80.5 °F 55.9 °F 43% 29.90 in 10.0 mi North 19.6 mph 28.8 mph N/A   Mostly Cloudy
5:13 PM 80.4 °F 80.5 °F 55.9 °F 43% 29.90 in 10.0 mi NNW 23.0 mph 31.1 mph N/A   Scattered Clouds
5:34 PM 79.5 °F - 55.9 °F 44% 29.90 in 10.0 mi NNW 16.1 mph 29.9 mph N/A   Scattered Clouds
5:54 PM 81.0 °F 80.8 °F 56.1 °F 42% 29.89 in 10.0 mi NNW 19.6 mph 27.6 mph N/A   Scattered Clouds
6:13 PM 79.9 °F - 55.6 °F 43% 29.89 in 10.0 mi NNW 24.2 mph 29.9 mph N/A   Scattered Clouds
6:33 PM 80.1 °F 80.0 °F 53.8 °F 40% 29.89 in 10.0 mi NNW 25.3 mph 33.4 mph N/A   Clear
6:53 PM 79.7 °F - 54.0 °F 41% 29.89 in 10.0 mi NNW 20.7 mph 27.6 mph N/A   Clear
7:14 PM 79.0 °F - 53.4 °F 41% 29.89 in 10.0 mi NNW 19.6 mph 31.1 mph N/A   Clear
7:33 PM 78.8 °F - 54.5 °F 43% 29.89 in 10.0 mi NNW 19.6 mph 25.3 mph N/A   Clear
7:53 PM 77.9 °F - 54.1 °F 44% 29.89 in 10.0 mi NNW 17.3 mph 25.3 mph N/A   Clear
8:13 PM 77.4 °F - 54.5 °F 45% 29.89 in 10.0 mi NNW 16.1 mph 23.0 mph N/A   Clear
8:33 PM 76.1 °F - 55.4 °F 49% 29.89 in 10.0 mi NNW 10.4 mph 17.3 mph N/A   Clear
8:54 PM 75.2 °F - 55.8 °F 51% 29.89 in 10.0 mi NNW 10.4 mph - N/A   Clear
9:13 PM 74.5 °F - 56.3 °F 53% 29.89 in 10.0 mi NNW 11.5 mph - N/A   Clear
9:33 PM 73.6 °F - 56.3 °F 55% 29.89 in 10.0 mi NNW 9.2 mph - N/A   Clear
9:53 PM 72.7 °F - 56.5 °F 57% 29.89 in 10.0 mi NNW 8.1 mph - N/A   Clear
10:14 PM 72.0 °F - 56.8 °F 59% 29.89 in 10.0 mi NNW 9.2 mph - N/A   Clear
10:34 PM 71.6 °F - 57.2 °F 60% 29.89 in 10.0 mi NW 5.8 mph - N/A   Clear
10:54 PM 68.9 °F - 57.4 °F 67% 29.89 in 10.0 mi Calm Calm - N/A   Clear
11:13 PM 68.9 °F - 57.6 °F 67% 29.89 in 10.0 mi Calm Calm - N/A   Clear
11:34 PM 68.0 °F - 58.1 °F 71% 29.89 in 10.0 mi Calm Calm - N/A   Scattered Clouds
11:54 PM 68.7 °F - 57.7 °F 68% 29.88 in 10.0 mi Calm Calm - N/A   Clear